Location: Six Mile Lake
(44.9000°N, 79.7170°W)
Time: 15:41:51
(UTC-04:00)

FALCONSAT 3 - Visible Passes

Search period start: 26 June 2022 00:00
Search period end: 06 July 2022 00:00
Orbit: 402 x 407 km, 35.4° (Epoch: 26 June)

Date Brightness Start Highest point End Pass type
(mag) Time Alt. Az. Time Alt. Az. Time Alt. Az.
01 Jul ? 22:44:31 10° SSW 22:45:24 13° SSW 22:45:24 13° SSW visible
02 Jul ? 21:50:57 10° SSW 21:52:37 13° SSE 21:54:17 10° SE visible
03 Jul ? 22:33:34 10° SW 22:35:43 16° S 22:35:49 16° S visible
04 Jul ? 21:39:39 10° SW 21:41:44 16° S 21:43:49 10° SE visible
05 Jul ? 22:22:47 10° SW 22:24:43 15° S 22:25:27 14° S visible
